This demonstration page uses our WeatherBlox Daily Observations layout. Learn more.

Left ArrowRight Arrow

Hourly Observations for February 16, 2021

Temp ( °F °C ) Dew Point ( °F °C ) Humidity (%) Winds ( mph kmh ) Pressure ( in mb ) Visibility ( mi km ) Precip ( " mm )
12:15 am 00:15 undefined N/A N/A N/A undefined N/A N/A N/A N/A
12:35 am 00:35 undefined N/A N/A N/A undefined N/A N/A N/A N/A
12:55 am 00:55 undefined N/A N/A N/A undefined N/A N/A N/A N/A
1:15 am 01:15 undefined N/A N/A N/A undefined N/A N/A N/A N/A
1:35 am 01:35 undefined N/A N/A N/A undefined N/A N/A N/A N/A
1:55 am 01:55 undefined N/A N/A N/A undefined N/A N/A N/A N/A
2:15 am 02:15 undefined N/A N/A N/A undefined N/A N/A N/A N/A
2:35 am 02:35 undefined N/A N/A N/A undefined N/A N/A N/A N/A
2:55 am 02:55 undefined N/A N/A N/A undefined N/A N/A N/A N/A
3:15 am 03:15 undefined N/A N/A N/A undefined N/A N/A N/A N/A
3:35 am 03:35 undefined N/A N/A N/A undefined N/A N/A N/A N/A
3:55 am 03:55 undefined N/A N/A N/A undefined N/A N/A N/A N/A
4:15 am 04:15 undefined N/A N/A N/A undefined N/A N/A N/A N/A
4:35 am 04:35 undefined N/A N/A N/A undefined N/A N/A N/A N/A
4:55 am 04:55 undefined N/A N/A N/A undefined N/A N/A N/A N/A
5:15 am 05:15 undefined N/A N/A N/A undefined N/A N/A N/A N/A
5:35 am 05:35 undefined N/A N/A N/A undefined N/A N/A N/A N/A
5:55 am 05:55 undefined N/A N/A N/A undefined N/A N/A N/A N/A
6:15 am 06:15 undefined N/A N/A N/A undefined N/A N/A N/A N/A
6:35 am 06:35 undefined N/A N/A N/A undefined N/A N/A N/A N/A
6:55 am 06:55 undefined N/A N/A N/A undefined N/A N/A N/A N/A
7:15 am 07:15 undefined N/A N/A N/A undefined N/A N/A N/A N/A
7:35 am 07:35 undefined N/A N/A N/A undefined N/A N/A N/A N/A
7:55 am 07:55 undefined N/A N/A N/A undefined N/A N/A N/A N/A
8:15 am 08:15 undefined N/A N/A N/A undefined N/A N/A N/A N/A
8:35 am 08:35 undefined N/A N/A N/A undefined N/A N/A N/A N/A
8:55 am 08:55 undefined N/A N/A N/A undefined N/A N/A N/A N/A
9:15 am 09:15 undefined N/A N/A N/A undefined N/A N/A N/A N/A
9:35 am 09:35 undefined N/A N/A N/A undefined N/A N/A N/A N/A
9:55 am 09:55 undefined N/A N/A N/A undefined N/A N/A N/A N/A
10:15 am 10:15 undefined N/A N/A N/A undefined N/A N/A N/A N/A
10:35 am 10:35 undefined N/A N/A N/A undefined N/A N/A N/A N/A
10:55 am 10:55 undefined N/A N/A N/A undefined N/A N/A N/A N/A
11:15 am 11:15 undefined N/A N/A N/A undefined N/A N/A N/A N/A
11:35 am 11:35 undefined N/A N/A N/A undefined N/A N/A N/A N/A
11:55 am 11:55 undefined N/A N/A N/A undefined N/A N/A N/A N/A
12:15 pm 12:15 undefined N/A N/A N/A undefined N/A N/A N/A N/A
12:30 pm 12:30 undefined -1 -18.6 -9 -22.8 70 70 SSE 16 26 30.23 1024 10 16 N/A
12:55 pm 12:55 undefined -1 -18.2 -8 -22.3 70 70 SSE 13 20 30.22 1023 10 16 N/A
1:15 pm 13:15 undefined N/A -7 -21.8 71 71 SSE 15 24 30.21 1023 10 16 N/A
1:35 pm 13:35 undefined 1 -17.5 -7 -21.6 71 71 SSE 14 22 30.19 1022 10 16 N/A
1:55 pm 13:55 undefined 1 -17.5 -7 -21.6 71 71 SSE 14 22 30.18 1022 10 16 N/A
2:15 pm 14:15 undefined 1 -17 -6 -21.2 70 70 SSE 13 20 30.18 1022 10 16 N/A
2:35 pm 14:35 undefined 2 -16.7 -6 -21 70 70 SSE 12 19 30.17 1022 10 16 N/A
2:55 pm 14:55 undefined 2 -16.5 -5 -20.6 71 71 SSE 14 22 30.17 1022 10 16 N/A
3:15 pm 15:15 undefined 3 -16.2 -4 -20.2 72 72 SSE 14 22 30.17 1022 10 16 N/A
3:35 pm 15:35 undefined 3 -16.3 -4 -20.2 72 72 SSE 14 22 30.17 1022 10 16 N/A
3:55 pm 15:55 undefined 3 -16.2 -4 -20 73 73 SSE 15 24 30.17 1022 10 16 N/A
4:15 pm 16:15 undefined 4 -15.8 -3 -19.5 73 73 SSE 17 28 30.15 1021 10 16 N/A
4:35 pm 16:35 undefined 4 -15.6 -3 -19.2 74 74 SE 14 22 30.16 1021 10 16 N/A
4:55 pm 16:55 undefined 4 -15.6 -3 -19.2 74 74 SE 14 22 30.16 1021 10 16 N/A
5:15 pm 17:15 undefined 4 -15.5 -2 -19 75 75 SSE 17 28 30.16 1021 10 16 N/A
5:35 pm 17:35 undefined 4 -15.5 -2 -18.8 76 76 SE 14 22 30.16 1021 10 16 N/A
5:55 pm 17:55 undefined 4 -15.5 -2 -18.8 76 76 SE 14 22 30.17 1022 10 16 N/A
6:15 pm 18:15 undefined 4 -15.5 -2 -18.8 76 76 SE 15 24 30.17 1022 10 16 N/A
6:35 pm 18:35 undefined 4 -15.5 -2 -18.8 76 76 SE 13 20 30.17 1022 10 16 N/A
6:55 pm 18:55 undefined 4 -15.4 -1 -18.6 77 77 SE 12 19 30.18 1022 10 16 N/A
7:15 pm 19:15 undefined 5 -15.2 -1 -18.5 76 76 SE 14 22 30.18 1022 10 16 N/A
7:35 pm 19:35 undefined 5 -15.1 -1 -18.5 75 75 SE 12 19 30.19 1022 10 16 N/A
7:55 pm 19:55 undefined 5 -15.1 -1 -18.5 75 75 SE 13 20 30.20 1023 10 16 N/A
8:15 pm 20:15 undefined 5 -15.2 -1 -18.3 77 77 SE 13 20 30.20 1023 10 16 N/A
8:35 pm 20:35 undefined 5 -15.2 -1 -18.1 79 79 SE 14 22 30.20 1023 10 16 N/A
8:55 pm 20:55 undefined 5 -15 N/A 78 78 SE 12 19 30.21 1023 10 16 N/A
9:15 pm 21:15 undefined 5 -15 N/A 79 79 SE 12 19 30.21 1023 10 16 N/A
9:35 pm 21:35 undefined 5 -14.8 1 -17.5 80 80 SE 13 20 30.20 1023 10 16 N/A
9:55 pm 21:55 undefined 6 -14.6 1 -17.2 81 81 SE 13 20 30.20 1023 10 16 N/A
10:15 pm 22:15 undefined 6 -14.3 2 -16.8 82 82 SE 12 19 30.21 1023 10 16 N/A
10:35 pm 22:35 undefined 7 -14 2 -16.5 82 82 SSE 14 22 30.21 1023 10 16 N/A
10:55 pm 22:55 undefined 7 -13.9 3 -16.2 83 83 SSE 13 20 30.20 1023 10 16 N/A
11:15 pm 23:15 undefined 7 -13.7 3 -16 83 83 SSE 14 22 30.19 1022 10 16 N/A
11:35 pm 23:35 undefined 7 -13.7 3 -16 83 83 SSE 16 26 30.19 1022 10 16 N/A
11:55 pm 23:55 undefined 8 -13.6 3 -16 82 82 SSE 13 20 30.19 1022 10 16 N/A

Powered by AerisWeather